EXPRESS-AT1

Last updated on Wed Oct 15 2025 00:02:47 GMT+0000 (Coordinated Universal Time)

1 39612U 14010A 25287.06946396 .00000065 00000+0 00000+0 0 9993 2 39612 0.0192 222.4421 0000450 318.6908 282.7597 1.00271194 42355
UTC large
Height (km)
Speed (km/s)
/
Latitude / Longitude
Inclination (degrees)
Orbital Period (minutes)
Azimuth
Elevation
Range (km)
Doppler Factor

Next 0 passes for location: London (51.5072 / 0.1276)

Sorry there are no passes over London.